Showing default

SES 15, 42709

Orbit data source: Space-Track

SES 15, 42709 is a payload satellite owned by SES Sat. Leasing (LU) in GEO that was launched on Thu, 18 May 2017 UTC via a SOYUZ-ST-A launch vehicle from the French Guiana (FRGUI). Payload-class satellites include a variety of spacecraft equipped with specific instruments for various scientific and technological missions. These include communications satellites like Starlink; space stations such as the ISS; scientific satellites like the Hubble; Earth observation satellites from companies like Planet Labs, Umbra, and HawkEye 360; GPS; miniature CubeSats for education and research; and military/defense satellites.

Loading next visibility...
Identifier
42709, 2017-026A
Orbit
GEO
Country
Flag of LULU / SES
Related business
Manufacturer
Boeing/ES
Mission
Operational Commercial Communications
Bus & Motor
BSS-702SP, R-4D?
Mass
2,302 kg wet, ~2,000 kg dry
Launch date (UTC)
2017-05-18 (8 years ago)
Launch vehicle
SOYUZ-ST-A
Launch site
French Guiana (FRGUI)
Object type
Payload
Rocket body
Debris
Shape & HBR
Box + 2 Pan, 20.0 m
Radar Cross Section
34.404 m², Large (>1 m²)

Expand to show TLE details & history
Last TLE update: 4 hours ago

TLE from 4 hours ago
0 SES 15
1 42709U 17026A   25308.50807383  .00000073  00000-0  00000+0 0  9999
2 42709   0.0283 356.6218 0000288 248.1999 212.9273  1.00265993  5183
Epoch: 2025-11-04T12:11Z
TLE epoch observation values (Epoch: 2025-11-04T12:11:37.578Z)
Latitude
0.0103°
Longitude
-129.19298°
Altitude
35,788.728 km
Speed
3.075 km/s
True Right ascension
06h 30m 49s
True Declination
0° 00' 37"
Sunlit
Object was in daylight at epoch
Visualization orbit readout
Latitude
Unknown
Longitude
Unknown
Altitude
Unknown
Speed
Unknown
Apparent Right ascension
Unknown
Apparent Declination
Unknown
Sunlit
N/A
Visualization observer readout
Local Sidereal Time
11:44:35
Azimuth
Unknown
Elevation
Unknown
Doppler factor
Unknown
Orbital elements
Apogee altitude
35,790.504 km
Perigee altitude
35,788.075 km
Semi-major axis
42,167.426 km
Eccentricity
0.00003
Inclination
0.0283°
RAAN
356.6218°
Arg. of periapsis
248.1999°
True anomaly
212.92551°
Mean anomaly
212.9273°
Eccentric anomaly
212.9264°
Mean motion
0.25066 °/min
Orbital period
1,436.23 mins
BSTAR
0
Loading maneuver chart data...
Computing Atmospheric mass density...
Loading historical data...
Loading historical data...
Loading historical data...
Loading historical data...
Loading historical data...
Loading historical data...
Loading historical data...
Other satellites on launch #26 in the year 2017 (2017-05-18 UTC)

Documentation

Showing up to 5 results
|